sat.trackr.live / text

‹ back to catalog

STARLINK-30507

NORAD 57982 · 2023-151U

PAYLOAD ACTIVE UNKNOWN

§ Identity

Operator
Country
US
Launch date
2023-09-30
Launch site
AFETR
Launch vehicle
Mass (kg)
RCS (m²)

Purposes: comms

External: N2YO · Heavens-Above · Gunter

§ Orbital elements

Epoch: 2026-09-20T15:56:43.618272Z

Period
94.27 min
Inclination
43.0043°
Eccentricity
0.0002087
Mean motion
15.27588287 rev/d
Perigee alt
481.6 km
Apogee alt
484.5 km
Semi-major
6,861.2 km
B*
3.0942e-4
RAAN
332.8578°
Arg perigee
270.3120°
Mean anomaly
89.7493°
Rev number
16,536

§ Raw data

STARLINK-305071 57982U 23151U   26263.66439373  .00008264  00000+0  30942-3 0  99932 57982  43.0043 332.8578 0002087 270.3120  89.7493 15.27588287165369

JSON: /api/v1/satellites/57982 · /tle

For live sub-satellite position, see the globe view (requires WebGL).

§ Visibility from observer

Set your observer location to see the next 7 days of passes ≥ 10°. The values pass through the URL so the page stays shareable.

No JS? Fill the form by hand. The geolocation button needs JavaScript.